Location: San Martino di Castrozza
(46.2667°N, 11.8000°E)
Time: 08:17:12
(UTC+00:00)

USA 308 - Pass Details

Date: 23 April 2021
Orbit: 568 x 576 km, 54.0° (Epoch: 05 May)

Event Time Altitude Azimuth Distance (km) Brightness Sun altitude
Rises 03:28:04 0° 302° (WNW) 2,790 6.1 -7.8°
Reaches altitude 10° 03:30:20 10° 302° (WNW) 1,889 5.3 -7.5°
Maximum altitude 03:34:38 88° 216° (SW) 581 2.9 -6.8°
Drops below altitude 10° 03:38:56 10° 125° (SE) 1,879 6.0 -6.1°
Sets 03:41:10 0° 125° (SE) 2,773 6.8 -5.8°
